SCP
0 0 0 0 0 0 0 0 0 0 0 -0 -0 -0 -0 0 0 0 -0 -0 -0 -0 -0 0 0 0 0 0 0 0 0 0 0
0 0 0 -0 0 0 0 0 0 0 0 0 0 -0 0 0 0 0 -0 -0 0 0 0 0 0 0 0 0 0 0 0 0 0
0 0 0 -0 0 0 0 0 0 0 0 1 0 0 1 0 1 0 0 0 -0 0 0 0 0 0 0 0 0 0 0 0 0
0 0 -0 0 0 0 -0 0 0 0 0 0 0 0 0 2 1 -0 -0 0 0 0 0 0 0 0 0 0 0 0 0 0 0
0 0 0 0 0 0 -0 -0 -0 -0 0 0 -0 -0 0 1 0 -0 0 0 0 0 0 0 0 0 0 0 0 0 0 0 0
-0 -0 0 0 0 0 0 -0 -0 0 -0 -0 0 0 -0 0 0 0 0 0 0 0 0 0 0 0 0 0 0 0 0 0 0
0 0 0 0 0 -0 0 -0 -0 -0 -0 0 0 0 -0 0 0 0 0 0 0 0 0 0 0 0 0 0 0 0 0 0 0
0 0 -0 -0 0 -0 0 0 0 0 0 0 0 0 -0 0 0 0 0 0 0 0 0 0 0 0 0 0 0 0 0 0 0
0 -0 0 0 0 -0 -0 -0 -0 -0 -0 -0 -0 -0 -0 0 0 0 0 0 0 0 0 0 0 0 0 0 0 0 0 0 0
0 0 -0 0 0 -0 -0 -0 -0 -0 0 0 0 0 0 0 0 0 0 0 0 0 0 0 0 0 0 0 0 0 0 0 0
0 0 0 0 0 0 0 0 0 0 0 0 0 0 0 0 0 0 0 0 0 0 0 0 0 0 0 0 0 0 0 0 0
0 0 0 0 0 0 0 0 0 0 0 0 0 0 0 0 0 0 0 0 0 0 0 0 0 0 0 0 0 0 0 0 0
0 0 0 0 0 0 0 0 0 0 0 0 0 0 0 0 0 0 0 0 0 0 0 0 0 0 0 0 0 0 0 0 0
0 0 0 0 0 0 0 0 0 0 0 0 0 0 0 0 0 0 0 0 0 0 0 0 0 0 0 0 0 0 0 0 0
0 0 0 0 0 0 0 0 0 0 0 0 0 0 0 0 0 0 0 0 0 0 0 0 0 0 0 0 0 0 0 0 0
0 0 0 0 0 0 0 0 0 0 0 0 0 0 0 0 0 0 0 0 0 0 0 0 0 0 0 0 0 0 0 0 0
0 0 0 0 0 0 0 0 0 0 0 0 0 0 0 0 0 0 0 0 0 0 0 0 0 0 0 0 0 0 0 0 0
0 0 0 0 0 0 0 0 0 0 0 0 0 0 0 0 0 0 0 0 0 0 0 0 0 0 0 0 0 0 0 0 0
0 0 0 0 0 0 0 0 0 0 0 0 0 0 0 0 0 0 0 0 0 0 0 0 0 0 0 0 0 0 0 0 0
0 0 0 0 0 0 0 0 0 0 0 0 0 0 0 0 0 0 -0 -0 0 0 0 0 0 0 0 0 0 0 0 0 0
Wind_Speed_500mb
49 49 54 44 43 42 52 49 50 56 64 60 63 53 49 41 36 37 35 31 29 26 23 15 10 13 13 8 7 10 18 22 30
53 58 56 62 50 32 17 20 32 45 60 70 68 58 52 51 41 39 43 38 36 33 28 19 12 14 14 9 11 13 18 18 24
46 41 45 47 37 21 22 21 14 24 58 68 74 77 60 54 44 36 46 37 42 31 28 20 14 5 2 7 9 9 13 17 22
10 34 54 53 36 27 35 26 48 25 31 40 48 55 65 58 41 48 38 35 34 26 17 14 12 6 10 15 20 19 23 26 27
26 35 48 46 44 19 32 38 38 24 18 37 46 78 77 19 37 40 33 31 29 22 14 10 13 16 20 24 26 29 30 31 32
30 37 44 39 29 28 15 31 26 31 42 30 38 64 26 34 44 35 34 32 22 16 14 15 19 26 31 34 35 34 34 36 38
21 21 26 18 27 30 28 24 37 37 27 31 39 50 28 39 36 33 31 23 15 13 17 22 29 33 35 37 38 38 38 40 40
16 22 28 30 19 3 8 12 23 44 47 49 57 61 42 28 23 21 16 10 11 18 26 30 30 33 37 36 43 42 45 51 54
28 22 31 18 6 10 24 23 22 17 19 22 31 35 19 13 5 12 15 20 28 33 33 33 37 39 42 47 50 53 57 60 60
32 28 26 26 19 25 24 26 30 31 25 22 23 21 16 11 12 14 18 24 28 31 34 36 37 42 42 49 57 69 65 68 60
30 30 23 24 21 27 29 30 35 38 36 33 28 26 24 25 28 31 34 34 35 35 35 38 41 47 51 61 69 73 74 70 59
16 16 16 13 16 27 32 36 29 30 31 26 23 22 20 21 24 27 29 30 33 39 42 46 52 59 66 73 78 76 67 55 55
21 14 12 15 26 31 32 29 20 15 13 14 17 18 20 24 30 33 37 41 45 49 55 61 66 70 72 73 74 67 57 54 54
22 23 20 18 13 7 4 3 8 13 16 23 24 28 32 35 39 41 45 48 52 57 61 65 67 70 71 67 62 58 55 55 56
36 31 21 11 2 8 15 22 30 36 39 37 37 39 38 35 35 35 37 40 42 45 49 54 58 59 60 59 58 55 54 49 48
23 13 6 5 10 16 22 28 32 31 32 33 32 32 31 34 36 36 39 44 47 48 48 53 55 51 53 55 51 50 54 48 47
12 5 3 11 17 20 21 23 24 24 20 18 21 23 27 35 42 47 50 54 56 57 57 59 59 60 67 61 59 59 60 56 59
4 7 14 18 17 15 15 18 19 15 16 18 19 24 35 45 56 64 71 75 73 66 60 55 59 62 65 72 72 71 61 54 60
2 8 12 14 12 13 15 16 16 21 24 25 23 28 43 51 65 76 82 83 81 69 65 61 56 54 55 59 66 64 60 60 59
1 6 2 3 6 7 10 11 20 26 21 21 20 29 39 47 56 69 81 87 82 81 73 62 61 56 59 65 70 65 66 59 62
Wind_Direction_500mb
189 197 209 214 221 214 215 227 238 240 239 238 235 229 231 229 229 225 235 241 247 259 266 275 271 260 258 289 274 249 252 254 254
190 199 210 226 229 220 236 272 260 263 256 242 239 231 231 228 225 232 241 241 252 253 259 258 259 264 282 288 295 274 268 275 271
197 220 225 235 243 279 285 271 284 258 264 256 249 245 232 226 211 217 238 227 242 236 243 243 241 216 318 331 335 328 297 288 282
216 248 254 261 240 261 346 330 353 317 300 267 259 315 250 225 212 214 228 231 235 229 215 212 190 271 299 310 314 312 311 300 290
233 242 252 250 242 306 351 26 30 36 313 315 360 318 331 168 219 216 201 211 196 191 202 230 258 283 292 293 292 296 298 296 290
233 249 255 249 259 282 354 37 29 342 2 359 3 306 288 210 210 197 184 186 182 196 232 251 273 282 282 282 283 286 290 293 291
229 233 226 227 292 300 243 344 9 323 340 311 235 227 265 205 197 168 172 172 177 212 246 266 277 283 290 292 289 290 294 297 295
212 218 204 212 319 194 130 57 270 247 246 236 221 239 194 193 150 159 164 189 247 282 293 294 296 292 299 294 291 294 300 301 297
161 189 196 208 192 96 104 108 115 134 149 140 149 171 163 145 189 287 312 310 313 312 307 301 304 298 304 308 304 303 304 308 303
165 166 183 191 202 176 169 165 168 171 169 176 182 181 186 212 255 284 286 285 282 275 274 278 284 282 284 287 294 299 302 308 297
162 166 174 188 200 202 199 195 193 186 181 187 198 211 224 232 240 247 249 250 250 254 257 260 267 275 279 283 290 296 302 302 288
183 167 170 171 149 161 161 170 168 180 181 184 191 199 214 230 240 244 247 254 258 261 268 273 277 279 285 287 290 293 297 296 290
189 197 153 123 118 128 135 129 140 174 192 211 234 257 276 284 286 288 283 281 283 283 284 284 283 285 285 285 285 288 286 287 291
142 140 139 136 140 161 138 242 279 288 296 296 308 309 307 307 306 306 301 296 294 291 288 288 288 287 284 282 284 288 285 282 284
137 138 139 143 260 300 302 303 306 312 316 323 328 333 337 337 338 337 329 322 316 309 307 299 295 294 292 288 285 281 280 281 279
140 155 194 262 301 314 319 323 325 324 329 336 339 344 348 353 352 347 342 336 329 324 316 309 304 303 305 305 298 288 277 277 274
159 166 302 320 318 317 318 321 330 340 347 354 353 354 359 357 351 346 343 339 334 327 323 319 313 309 308 306 304 298 285 286 284
192 302 317 319 323 334 344 350 355 3 4 359 352 354 351 347 346 342 338 336 334 328 320 310 303 296 293 296 296 299 295 290 286
282 318 318 315 324 334 339 353 4 3 352 345 340 347 349 348 347 347 348 343 333 326 320 315 311 302 289 283 286 293 289 280 276
338 332 336 50 16 10 11 37 20 356 344 342 344 342 341 343 347 351 350 347 340 329 327 322 316 306 295 288 285 281 276 269 267
Wind_Speed_850mb
49 49 54 44 43 42 52 49 50 56 64 60 63 53 49 41 36 37 35 31 29 26 23 15 10 13 13 8 7 10 18 22 30
53 58 56 62 50 32 17 20 32 45 60 70 68 58 52 51 41 39 43 38 36 33 28 19 12 14 14 9 11 13 18 18 24
46 41 45 47 37 21 22 21 14 24 58 68 74 77 60 54 44 36 46 37 42 31 28 20 14 5 2 7 9 9 13 17 22
10 34 54 53 36 27 35 26 48 25 31 40 48 55 65 58 41 48 38 35 34 26 17 14 12 6 10 15 20 19 23 26 27
26 35 48 46 44 19 32 38 38 24 18 37 46 78 77 19 37 40 33 31 29 22 14 10 13 16 20 24 26 29 30 31 32
30 37 44 39 29 28 15 31 26 31 42 30 38 64 26 34 44 35 34 32 22 16 14 15 19 26 31 34 35 34 34 36 38
21 21 26 18 27 30 28 24 37 37 27 31 39 50 28 39 36 33 31 23 15 13 17 22 29 33 35 37 38 38 38 40 40
16 22 28 30 19 3 8 12 23 44 47 49 57 61 42 28 23 21 16 10 11 18 26 30 30 33 37 36 43 42 45 51 54
28 22 31 18 6 10 24 23 22 17 19 22 31 35 19 13 5 12 15 20 28 33 33 33 37 39 42 47 50 53 57 60 60
32 28 26 26 19 25 24 26 30 31 25 22 23 21 16 11 12 14 18 24 28 31 34 36 37 42 42 49 57 69 65 68 60
30 30 23 24 21 27 29 30 35 38 36 33 28 26 24 25 28 31 34 34 35 35 35 38 41 47 51 61 69 73 74 70 59
16 16 16 13 16 27 32 36 29 30 31 26 23 22 20 21 24 27 29 30 33 39 42 46 52 59 66 73 78 76 67 55 55
21 14 12 15 26 31 32 29 20 15 13 14 17 18 20 24 30 33 37 41 45 49 55 61 66 70 72 73 74 67 57 54 54
22 23 20 18 13 7 4 3 8 13 16 23 24 28 32 35 39 41 45 48 52 57 61 65 67 70 71 67 62 58 55 55 56
36 31 21 11 2 8 15 22 30 36 39 37 37 39 38 35 35 35 37 40 42 45 49 54 58 59 60 59 58 55 54 49 48
23 13 6 5 10 16 22 28 32 31 32 33 32 32 31 34 36 36 39 44 47 48 48 53 55 51 53 55 51 50 54 48 47
12 5 3 11 17 20 21 23 24 24 20 18 21 23 27 35 42 47 50 54 56 57 57 59 59 60 67 61 59 59 60 56 59
4 7 14 18 17 15 15 18 19 15 16 18 19 24 35 45 56 64 71 75 73 66 60 55 59 62 65 72 72 71 61 54 60
2 8 12 14 12 13 15 16 16 21 24 25 23 28 43 51 65 76 82 83 81 69 65 61 56 54 55 59 66 64 60 60 59
1 6 2 3 6 7 10 11 20 26 21 21 20 29 39 47 56 69 81 87 82 81 73 62 61 56 59 65 70 65 66 59 62
Wind_Direction_850mb
189 197 209 214 221 214 215 227 238 240 239 238 235 229 231 229 229 225 235 241 247 259 266 275 271 260 258 289 274 249 252 254 254
190 199 210 226 229 220 236 272 260 263 256 242 239 231 231 228 225 232 241 241 252 253 259 258 259 264 282 288 295 274 268 275 271
197 220 225 235 243 279 285 271 284 258 264 256 249 245 232 226 211 217 238 227 242 236 243 243 241 216 318 331 335 328 297 288 282
216 248 254 261 240 261 346 330 353 317 300 267 259 315 250 225 212 214 228 231 235 229 215 212 190 271 299 310 314 312 311 300 290
233 242 252 250 242 306 351 26 30 36 313 315 360 318 331 168 219 216 201 211 196 191 202 230 258 283 292 293 292 296 298 296 290
233 249 255 249 259 282 354 37 29 342 2 359 3 306 288 210 210 197 184 186 182 196 232 251 273 282 282 282 283 286 290 293 291
229 233 226 227 292 300 243 344 9 323 340 311 235 227 265 205 197 168 172 172 177 212 246 266 277 283 290 292 289 290 294 297 295
212 218 204 212 319 194 130 57 270 247 246 236 221 239 194 193 150 159 164 189 247 282 293 294 296 292 299 294 291 294 300 301 297
161 189 196 208 192 96 104 108 115 134 149 140 149 171 163 145 189 287 312 310 313 312 307 301 304 298 304 308 304 303 304 308 303
165 166 183 191 202 176 169 165 168 171 169 176 182 181 186 212 255 284 286 285 282 275 274 278 284 282 284 287 294 299 302 308 297
162 166 174 188 200 202 199 195 193 186 181 187 198 211 224 232 240 247 249 250 250 254 257 260 267 275 279 283 290 296 302 302 288
183 167 170 171 149 161 161 170 168 180 181 184 191 199 214 230 240 244 247 254 258 261 268 273 277 279 285 287 290 293 297 296 290
189 197 153 123 118 128 135 129 140 174 192 211 234 257 276 284 286 288 283 281 283 283 284 284 283 285 285 285 285 288 286 287 291
142 140 139 136 140 161 138 242 279 288 296 296 308 309 307 307 306 306 301 296 294 291 288 288 288 287 284 282 284 288 285 282 284
137 138 139 143 260 300 302 303 306 312 316 323 328 333 337 337 338 337 329 322 316 309 307 299 295 294 292 288 285 281 280 281 279
140 155 194 262 301 314 319 323 325 324 329 336 339 344 348 353 352 347 342 336 329 324 316 309 304 303 305 305 298 288 277 277 274
159 166 302 320 318 317 318 321 330 340 347 354 353 354 359 357 351 346 343 339 334 327 323 319 313 309 308 306 304 298 285 286 284
192 302 317 319 323 334 344 350 355 3 4 359 352 354 351 347 346 342 338 336 334 328 320 310 303 296 293 296 296 299 295 290 286
282 318 318 315 324 334 339 353 4 3 352 345 340 347 349 348 347 347 348 343 333 326 320 315 311 302 289 283 286 293 289 280 276
338 332 336 50 16 10 11 37 20 356 344 342 344 342 341 343 347 351 350 347 340 329 327 322 316 306 295 288 285 281 276 269 267